EZY23GE LIMC-EGGW

Flight info

Callsign EZY23GE
Flight time 1h 27m
Altitude 36000
Route AOSTA5W AOSTA DCT ORSUD DCT MOLUS DCT UNKIR DCT DJL DCT BRY DCT CLM DCT KOPOR DCT SOSUN DCT SUBIP UM733 UNDUG UNDUG1N
Aircraft A320/M-SDE3FGHIRWY/LB1

Departure

Time 2026-04-30 18:51
Airport Milan Malpensa International Airport (LIMC)

Arrival

Time 2026-04-30 20:18
Airport London Luton Airport (EGGW)
Time Latitude Longitude Altitude Speed Heading
2026-04-30 18:04 45.64735 8.72478 739 ft 0 kts 259°
2026-04-30 18:37 45.64736 8.72487 715 ft 4 kts 258°
2026-04-30 18:37 45.64743 8.72524 746 ft 4 kts 248°
2026-04-30 18:37 45.64756 8.72556 740 ft 4 kts 219°
2026-04-30 18:37 45.64773 8.72566 740 ft 0 kts 169°
2026-04-30 18:41 45.64771 8.72567 740 ft 2 kts 169°
2026-04-30 18:41 45.64745 8.72575 740 ft 3 kts 167°
2026-04-30 18:41 45.64709 8.72593 740 ft 9 kts 161°
2026-04-30 18:42 45.64654 8.72612 740 ft 7 kts 171°
2026-04-30 18:42 45.64558 8.72638 740 ft 12 kts 168°
2026-04-30 18:42 45.64423 8.72673 740 ft 23 kts 171°
2026-04-30 18:45 45.63015 8.72825 741 ft 33 kts 169°
2026-04-30 18:45 45.62785 8.72888 741 ft 34 kts 169°
2026-04-30 18:45 45.62556 8.72951 740 ft 34 kts 169°
2026-04-30 18:46 45.62322 8.73016 741 ft 34 kts 169°
2026-04-30 18:46 45.62086 8.73080 740 ft 34 kts 169°
2026-04-30 18:46 45.61870 8.73138 741 ft 24 kts 168°
2026-04-30 18:46 45.61748 8.73197 741 ft 17 kts 137°
2026-04-30 18:47 45.61691 8.73311 741 ft 12 kts 123°
2026-04-30 18:47 45.61660 8.73377 741 ft 0 kts 123°
2026-04-30 18:47 45.61659 8.73378 741 ft 2 kts 123°
2026-04-30 18:48 45.61635 8.73430 741 ft 11 kts 124°
2026-04-30 18:48 45.61595 8.73522 740 ft 10 kts 114°
2026-04-30 18:48 45.61583 8.73613 741 ft 9 kts 89°
2026-04-30 18:48 45.61601 8.73698 739 ft 9 kts 59°
2026-04-30 18:49 45.61647 8.73729 739 ft 7 kts 346°
2026-04-30 18:49 45.61689 8.73717 739 ft 6 kts 348°
2026-04-30 18:49 45.61697 8.73715 739 ft 0 kts 351°
2026-04-30 18:50 45.61721 8.73709 740 ft 16 kts 351°
2026-04-30 18:50 45.62105 8.73601 740 ft 93 kts 349°
2026-04-30 18:50 45.62951 8.73367 738 ft 152 kts 349°
2026-04-30 18:50 45.64093 8.73044 1090 ft 170 kts 349°
2026-04-30 18:51 45.65261 8.72717 1794 ft 172 kts 349°
2026-04-30 18:51 45.66465 8.72562 2490 ft 176 kts
2026-04-30 18:51 45.67731 8.72614 2913 ft 195 kts
2026-04-30 18:51 45.69169 8.72629 3279 ft 218 kts
2026-04-30 18:52 45.70753 8.72626 3802 ft 233 kts 359°
2026-04-30 18:52 45.72335 8.72118 4607 ft 238 kts 327°
2026-04-30 18:52 45.73390 8.70341 5455 ft 239 kts 288°
2026-04-30 18:52 45.73507 8.68005 6302 ft 242 kts 260°
2026-04-30 18:53 45.73085 8.65644 7160 ft 246 kts 252°
2026-04-30 18:53 45.72513 8.63326 8036 ft 249 kts 250°
2026-04-30 18:53 45.71906 8.60973 8874 ft 254 kts 247°
2026-04-30 18:53 45.71219 8.58565 9327 ft 277 kts 256°
2026-04-30 18:54 45.70857 8.55776 9940 ft 290 kts 265°
2026-04-30 18:54 45.70698 8.52845 10569 ft 305 kts 269°
2026-04-30 18:54 45.70597 8.49717 10923 ft 326 kts 269°
2026-04-30 18:54 45.70486 8.46421 11592 ft 336 kts 269°
2026-04-30 18:55 45.70337 8.43064 12399 ft 341 kts 268°
2026-04-30 18:55 45.69927 8.36205 14049 ft 350 kts 267°
2026-04-30 18:55 45.69689 8.32761 14753 ft 354 kts 267°
2026-04-30 18:56 45.69185 8.25650 16196 ft 361 kts 266°
2026-04-30 18:56 45.68932 8.22056 16903 ft 365 kts 266°
2026-04-30 18:56 45.68681 8.18416 17595 ft 369 kts 266°
2026-04-30 18:57 45.68176 8.11077 18924 ft 376 kts 266°
2026-04-30 18:57 45.67911 8.07322 19549 ft 380 kts 266°
2026-04-30 18:57 45.67645 8.03578 20123 ft 384 kts 266°
2026-04-30 18:58 45.67093 7.95893 21277 ft 392 kts 267°
2026-04-30 18:58 45.67072 7.91987 21863 ft 393 kts 277°
2026-04-30 18:58 45.67545 7.88125 22455 ft 394 kts 288°
2026-04-30 18:59 45.69247 7.80663 23615 ft 401 kts 290°
2026-04-30 19:00 45.71878 7.69146 25108 ft 411 kts 291°
2026-04-30 19:00 45.73070 7.65447 25580 ft 409 kts 306°
2026-04-30 19:00 45.76977 7.59577 26526 ft 410 kts 319°
2026-04-30 19:01 45.81177 7.53980 27490 ft 414 kts 319°
2026-04-30 19:01 45.83296 7.51161 27951 ft 417 kts 319°
2026-04-30 19:02 45.87570 7.45446 28853 ft 421 kts 318°
2026-04-30 19:02 45.91853 7.39683 29688 ft 426 kts 318°
2026-04-30 19:03 45.96202 7.33816 30459 ft 431 kts 318°
2026-04-30 19:03 46.00598 7.27877 31076 ft 435 kts 318°
2026-04-30 19:04 46.05028 7.21873 31698 ft 439 kts 319°
2026-04-30 19:04 46.09438 7.15887 32548 ft 436 kts 318°
2026-04-30 19:05 46.13864 7.09858 33281 ft 437 kts 318°
2026-04-30 19:05 46.18248 7.03879 34103 ft 435 kts 319°
2026-04-30 19:06 46.22660 6.97857 34854 ft 433 kts 319°
2026-04-30 19:06 46.24818 6.94909 35223 ft 432 kts 319°
2026-04-30 19:06 46.29185 6.88925 35954 ft 430 kts 319°
2026-04-30 19:07 46.33500 6.82994 36198 ft 424 kts 318°
2026-04-30 19:07 46.35628 6.80062 36187 ft 424 kts 318°
2026-04-30 19:08 46.44051 6.68128 36197 ft 426 kts 310°
2026-04-30 19:09 46.48705 6.57072 36189 ft 429 kts 302°
2026-04-30 19:09 46.51652 6.49608 36195 ft 428 kts 302°
2026-04-30 19:10 46.57570 6.34569 36180 ft 430 kts 301°
2026-04-30 19:11 46.62021 6.23202 36184 ft 431 kts 301°
2026-04-30 19:12 46.64967 6.15654 36171 ft 431 kts 301°
2026-04-30 19:12 46.67925 6.08055 36168 ft 431 kts 300°
2026-04-30 19:13 46.73816 5.92826 36145 ft 432 kts 300°
2026-04-30 19:14 46.76763 5.85201 36135 ft 433 kts 300°
2026-04-30 19:14 46.79695 5.77564 36137 ft 433 kts 300°
2026-04-30 19:15 46.83217 5.70450 36137 ft 431 kts 316°
2026-04-30 19:15 46.89767 5.61457 36132 ft 432 kts 317°
2026-04-30 19:16 46.94138 5.55463 36142 ft 432 kts 317°
2026-04-30 19:17 47.00706 5.46412 36147 ft 433 kts 317°
2026-04-30 19:17 47.07288 5.37294 36159 ft 434 kts 318°
2026-04-30 19:18 47.13860 5.28179 36136 ft 435 kts 317°
2026-04-30 19:19 47.18243 5.22078 36147 ft 436 kts 317°
2026-04-30 19:19 47.24861 5.12841 36144 ft 436 kts 317°
2026-04-30 19:20 47.29206 5.06647 36139 ft 437 kts 316°
2026-04-30 19:21 47.35487 4.96906 36157 ft 438 kts 314°
2026-04-30 19:22 47.43905 4.83794 36146 ft 439 kts 314°
2026-04-30 19:23 47.56553 4.64178 36167 ft 440 kts 314°
2026-04-30 19:24 47.62852 4.54314 36148 ft 441 kts 314°
2026-04-30 19:25 47.73405 4.37748 36158 ft 441 kts 314°
2026-04-30 19:26 47.81809 4.24467 36164 ft 442 kts 314°
2026-04-30 19:27 47.88118 4.14453 36154 ft 443 kts 313°
2026-04-30 19:28 47.94439 4.04381 36148 ft 443 kts 314°
2026-04-30 19:29 48.02837 3.90949 36159 ft 444 kts 313°
2026-04-30 19:30 48.11238 3.77437 36162 ft 444 kts 313°
2026-04-30 19:31 48.18948 3.64986 36161 ft 444 kts 313°
2026-04-30 19:31 48.25209 3.54814 36161 ft 444 kts 313°
2026-04-30 19:32 48.29400 3.47992 36168 ft 444 kts 313°
2026-04-30 19:32 48.33601 3.41136 36166 ft 444 kts 313°
2026-04-30 19:33 48.37761 3.34325 36168 ft 445 kts 313°
2026-04-30 19:33 48.42550 3.28520 36153 ft 442 kts 332°
2026-04-30 19:34 48.48156 3.24752 36158 ft 441 kts 339°
2026-04-30 19:35 48.56623 3.19337 36167 ft 442 kts 338°
2026-04-30 19:35 48.62310 3.15681 36168 ft 442 kts 338°
2026-04-30 19:36 48.67961 3.12053 36170 ft 442 kts 338°
2026-04-30 19:36 48.76426 3.06594 36182 ft 442 kts 338°
2026-04-30 19:37 48.82095 3.02925 36183 ft 442 kts 338°
2026-04-30 19:37 48.87548 2.98711 36180 ft 443 kts 331°
2026-04-30 19:38 48.92903 2.94025 36176 ft 444 kts 331°
2026-04-30 19:38 48.98282 2.89316 36176 ft 444 kts 331°
2026-04-30 19:39 49.03612 2.84647 36178 ft 444 kts 331°
2026-04-30 19:39 49.08979 2.79921 36179 ft 444 kts 331°
2026-04-30 19:40 49.14321 2.75208 36183 ft 444 kts 331°
2026-04-30 19:40 49.19693 2.70464 36185 ft 444 kts 331°
2026-04-30 19:41 49.25020 2.65742 36192 ft 444 kts 330°
2026-04-30 19:41 49.30371 2.60980 36185 ft 445 kts 330°
2026-04-30 19:42 49.35728 2.56212 36183 ft 445 kts 330°
2026-04-30 19:42 49.41093 2.51422 36188 ft 446 kts 330°
2026-04-30 19:43 49.46425 2.46637 36185 ft 446 kts 330°
2026-04-30 19:44 49.53690 2.37875 36182 ft 446 kts 309°
2026-04-30 19:44 49.57600 2.30444 36181 ft 446 kts 309°
2026-04-30 19:45 49.61528 2.22996 36193 ft 446 kts 308°
2026-04-30 19:45 49.65420 2.15589 36189 ft 446 kts 308°
2026-04-30 19:46 49.69331 2.08114 36189 ft 446 kts 308°
2026-04-30 19:46 49.73210 2.00685 36183 ft 446 kts 308°
2026-04-30 19:47 49.77108 1.93207 36181 ft 446 kts 308°
2026-04-30 19:47 49.81007 1.85697 36186 ft 446 kts 308°
2026-04-30 19:48 49.84900 1.78187 36190 ft 446 kts 308°
2026-04-30 19:48 49.88768 1.70710 36190 ft 446 kts 308°
2026-04-30 19:49 49.92636 1.63202 36188 ft 446 kts 308°
2026-04-30 19:49 49.98500 1.51942 36182 ft 447 kts 314°
2026-04-30 19:50 50.03102 1.45523 36181 ft 447 kts 319°
2026-04-30 19:50 50.07802 1.39142 36183 ft 447 kts 319°
2026-04-30 19:51 50.12465 1.32786 36189 ft 447 kts 318°
2026-04-30 19:51 50.17121 1.26414 36191 ft 447 kts 318°
2026-04-30 19:52 50.21793 1.19999 36188 ft 447 kts 318°
2026-04-30 19:52 50.26464 1.13578 35515 ft 451 kts 318°
2026-04-30 19:53 50.28820 1.10333 34886 ft 451 kts 318°
2026-04-30 19:53 50.31178 1.07077 34324 ft 449 kts 318°
2026-04-30 19:53 50.33494 1.03876 33745 ft 447 kts 318°
2026-04-30 19:53 50.35817 1.00666 33182 ft 444 kts 318°
2026-04-30 19:54 50.38135 0.97465 32647 ft 441 kts 318°
2026-04-30 19:54 50.40424 0.94295 32130 ft 438 kts 318°
2026-04-30 19:54 50.42676 0.91156 31625 ft 436 kts 318°
2026-04-30 19:54 50.44943 0.87997 31125 ft 434 kts 318°
2026-04-30 19:55 50.47226 0.84879 30534 ft 433 kts 319°
2026-04-30 19:55 50.49515 0.81827 29629 ft 440 kts 320°
2026-04-30 19:55 50.51864 0.78742 28945 ft 439 kts 320°
2026-04-30 19:55 50.54208 0.75680 28343 ft 437 kts 320°
2026-04-30 19:56 50.56534 0.72631 27778 ft 434 kts 320°
2026-04-30 19:56 50.58843 0.69583 27233 ft 431 kts 320°
2026-04-30 19:56 50.61133 0.66535 26706 ft 428 kts 320°
2026-04-30 19:56 50.63394 0.63513 26188 ft 425 kts 319°
2026-04-30 19:57 50.65639 0.60503 25674 ft 422 kts 319°
2026-04-30 19:57 50.67847 0.57534 25197 ft 420 kts 319°
2026-04-30 19:57 50.70065 0.54548 24725 ft 417 kts 319°
2026-04-30 19:57 50.72212 0.51516 24407 ft 409 kts 314°
2026-04-30 19:58 50.74122 0.48288 24286 ft 396 kts 311°
2026-04-30 19:58 50.75950 0.45125 24001 ft 389 kts 311°
2026-04-30 19:58 50.77785 0.41977 23550 ft 387 kts 311°
2026-04-30 19:58 50.79581 0.38898 23098 ft 384 kts 311°
2026-04-30 19:59 50.81384 0.35805 22656 ft 381 kts 311°
2026-04-30 19:59 50.83185 0.32751 22237 ft 378 kts 315°
2026-04-30 19:59 50.87236 0.27481 21406 ft 373 kts 321°
2026-04-30 20:00 50.89275 0.24947 21023 ft 370 kts 321°
2026-04-30 20:00 50.91365 0.22664 20654 ft 367 kts 333°
2026-04-30 20:00 50.93616 0.20740 20266 ft 365 kts 328°
2026-04-30 20:00 50.95726 0.18592 19896 ft 362 kts 326°
2026-04-30 20:01 50.99912 0.14230 19187 ft 357 kts 327°
2026-04-30 20:01 51.02018 0.12119 18837 ft 355 kts 328°
2026-04-30 20:01 51.04131 0.10093 18498 ft 353 kts 329°
2026-04-30 20:02 51.08321 0.06193 17727 ft 349 kts 329°
2026-04-30 20:02 51.10421 0.04234 17528 ft 348 kts 329°
2026-04-30 20:03 51.14577 0.00306 17270 ft 348 kts 329°
2026-04-30 20:03 51.16633 -0.01655 17157 ft 347 kts 329°
2026-04-30 20:03 51.18720 -0.03653 17027 ft 348 kts 329°
2026-04-30 20:03 51.20802 -0.05645 16897 ft 347 kts 329°
2026-04-30 20:04 51.22849 -0.07603 16774 ft 347 kts 329°
2026-04-30 20:04 51.24920 -0.09583 16645 ft 346 kts 329°
2026-04-30 20:04 51.26982 -0.11558 16517 ft 345 kts 329°
2026-04-30 20:05 51.30984 -0.15722 16270 ft 344 kts 320°
2026-04-30 20:05 51.32785 -0.18258 16134 ft 343 kts 316°
2026-04-30 20:05 51.36285 -0.23403 15512 ft 339 kts 316°
2026-04-30 20:06 51.38005 -0.25933 15191 ft 337 kts 316°
2026-04-30 20:06 51.39728 -0.28468 14843 ft 336 kts 316°
2026-04-30 20:06 51.41446 -0.30998 14537 ft 334 kts 316°
2026-04-30 20:06 51.43141 -0.33493 14217 ft 332 kts 316°
2026-04-30 20:07 51.44848 -0.36007 13888 ft 331 kts 316°
2026-04-30 20:07 51.46525 -0.38475 13537 ft 329 kts 316°
2026-04-30 20:07 51.49879 -0.43421 12844 ft 325 kts 316°
2026-04-30 20:08 51.51535 -0.45869 12500 ft 323 kts 316°
2026-04-30 20:08 51.53193 -0.48323 11998 ft 326 kts 316°
2026-04-30 20:08 51.54851 -0.50786 11437 ft 331 kts 316°
2026-04-30 20:08 51.56551 -0.53320 10877 ft 334 kts 316°
2026-04-30 20:09 51.58265 -0.55882 10318 ft 337 kts 316°
2026-04-30 20:09 51.59968 -0.58423 9918 ft 329 kts 316°
2026-04-30 20:09 51.63191 -0.63101 8991 ft 303 kts 323°
2026-04-30 20:10 51.66637 -0.66861 7644 ft 295 kts 326°
2026-04-30 20:10 51.68304 -0.68631 7309 ft 279 kts 326°
2026-04-30 20:10 51.69871 -0.70277 7143 ft 257 kts 328°
2026-04-30 20:11 51.73004 -0.72386 6442 ft 240 kts 341°
2026-04-30 20:11 51.74601 -0.73170 5867 ft 242 kts 345°
2026-04-30 20:11 51.76289 -0.73868 5194 ft 257 kts 346°
2026-04-30 20:12 51.79742 -0.74984 4627 ft 246 kts
2026-04-30 20:12 51.81192 -0.73921 4582 ft 223 kts 52°
2026-04-30 20:12 51.81766 -0.71817 4573 ft 195 kts 95°
2026-04-30 20:13 51.81737 -0.69678 4412 ft 194 kts 88°
2026-04-30 20:13 51.82081 -0.67560 4194 ft 195 kts 80°
2026-04-30 20:13 51.82466 -0.65446 3941 ft 194 kts 81°
2026-04-30 20:13 51.82838 -0.63353 3689 ft 193 kts 81°
2026-04-30 20:14 51.83203 -0.61285 3439 ft 192 kts 82°
2026-04-30 20:14 51.83567 -0.59211 3180 ft 191 kts 82°
2026-04-30 20:14 51.83928 -0.57147 2944 ft 189 kts 82°
2026-04-30 20:14 51.84283 -0.55126 2686 ft 183 kts 82°
2026-04-30 20:15 51.84625 -0.53174 2424 ft 175 kts 82°
2026-04-30 20:15 51.84941 -0.51383 2197 ft 158 kts 82°
2026-04-30 20:15 51.85222 -0.49774 2003 ft 143 kts 82°
2026-04-30 20:15 51.85481 -0.48292 1825 ft 131 kts 83°
2026-04-30 20:16 51.85719 -0.46891 1659 ft 128 kts 83°
2026-04-30 20:16 51.85948 -0.45521 1451 ft 128 kts 82°
2026-04-30 20:16 51.86205 -0.44148 1266 ft 126 kts 78°
2026-04-30 20:16 51.86425 -0.42747 1112 ft 128 kts 79°
2026-04-30 20:17 51.86681 -0.41386 948 ft 128 kts 76°
2026-04-30 20:17 51.86908 -0.39993 805 ft 127 kts 75°
2026-04-30 20:17 51.87157 -0.38618 607 ft 126 kts 76°
2026-04-30 20:17 51.87384 -0.37305 526 ft 112 kts 76°
2026-04-30 20:18 51.87541 -0.36379 521 ft 45 kts 74°
2026-04-30 20:18 51.87607 -0.36013 516 ft 24 kts 74°
2026-04-30 20:18 51.87676 -0.35923 516 ft 14 kts 346°
2026-04-30 20:18 51.87760 -0.35977 516 ft 12 kts 324°
2026-04-30 20:19 51.87781 -0.36079 518 ft 8 kts 260°
2026-04-30 20:19 51.87772 -0.36135 518 ft 7 kts 256°
2026-04-30 20:19 51.87755 -0.36243 518 ft 10 kts 255°
2026-04-30 20:19 51.87730 -0.36377 519 ft 15 kts 254°
2026-04-30 20:20 51.87703 -0.36544 520 ft 16 kts 256°
2026-04-30 20:20 51.87674 -0.36707 522 ft 15 kts 254°
2026-04-30 20:20 51.87661 -0.36783 524 ft 0 kts 255°
2026-04-30 20:20 51.87661 -0.36785 524 ft 0 kts 255°
2026-04-30 20:21 51.87661 -0.36823 524 ft 7 kts 284°
2026-04-30 20:22 51.87740 -0.36886 518 ft 18 kts 342°
2026-04-30 20:22 51.87884 -0.36960 512 ft 24 kts 344°
2026-04-30 20:22 51.88001 -0.37045 512 ft 15 kts 309°
2026-04-30 20:22 51.88041 -0.37205 508 ft 13 kts 263°
2026-04-30 20:23 51.88016 -0.37341 508 ft 9 kts 272°
2026-04-30 20:23 51.88049 -0.37373 508 ft 4 kts 341°
2026-04-30 20:23 51.88066 -0.37382 508 ft 1 kts 342°
2026-04-30 20:23 51.88073 -0.37386 508 ft 0 kts 341°